User: anonymous   Login
Location: Unspecified
(0.0000°N, 0.0000°E)
Time: 09:54:03
(UTC+00:00)
Language:

S-56A Canister/Altair - Orbit

View from above orbital plane
View from above orbital plane
View from above satellite
View from above satellite

Ground track
Ground track

The orbit data is extracted from the following two-line orbital elements,

1 00082U 61004B   16342.21090163  .00000082  00000-0  11120-3 0  9997
2 00082  38.8565 287.4695 1167478 347.3466  10.0117 12.25798646649701
Epoch (UTC): 07 December 2016 05:03:41
Eccentricity: 0.1167478
inclination: 38.8565°
perigee height: 640 km
apogee height: 2495 km
right ascension of ascending node: 287.4695°
argument of perigee: 347.3466°
revolutions per day: 12.25798646
mean anomaly at epoch: 10.0117°
orbit number at epoch: 64970

The dashed part of the orbit path shows where the satellite is in the earth's shadow,  

DLR